Regional Weather Roundup
Issued by NWS

Home | Current Version | Previous Version | Graphics & Text | Print | Product List | Glossary On
Versions: 1 2 3 4 5 6 7 8 9 10 11 12 13 14 15 16 17 18 19 20 21 22 23 24 25 26 27 28 29 30 31 32 33 34 35 36 37 38 39 40 41 42 43 44 45 46 47 48 49 50
000
ASUS43 KLOT 291608
RWRIL

ILLINOIS REGIONAL WEATHER ROUNDUP
NATIONAL WEATHER SERVICE CHICAGO/ROMEOVILLE IL
1100 AM CDT SUN MAR 29 2015

NOTE: "FAIR" INDICATES FEW OR NO CLOUDS BELOW 12,000 FEET WITH NO
SIGNIFICANT WEATHER AND/OR OBSTRUCTIONS TO VISIBILITY.

* THESE STATIONS ARE NOT UNDER NWS QUALITY CONTROL. THEY ALSO MAY NOT
  REPORT WEATHER SUCH AS PRECIPITATION OR FOG.

ILZ001-002-007-009-015-016-024-291700-
NORTHWEST ILLINOIS

CITY           SKY/WX    TMP DP  RH WIND       PRES   REMARKS
MOLINE         CLOUDY    35  28  75 S21G30    29.91R WCI  24
STERLING*      CLOUDY    34  27  75 SW5G16    29.94R WCI  30
SAVANNA*       CLOUDY    34  30  83 S12       29.91S WCI  26
$$

ILZ003-004-008-010-011-017-018-291700-
NORTH CENTRAL ILLINOIS

CITY           SKY/WX    TMP DP  RH WIND       PRES   REMARKS
ROCKFORD       LGT RAIN  33  27  78 S21       29.93F WCI  21
FREEPORT*      CLOUDY    32  28  86 SW15      29.93R WCI  22
ROCHELLE*      DRIZZLE   32  28  85 S18       29.92F WCI  20
DE KALB*       MIX PCPN  31  27  84 S20       29.94F WCI  19
PERU*          LGT RAIN  34  28  78 S18G24    29.96F WCI  23
$$

ILZ005-006-012>014-019>023-291700-
NORTHEAST ILLINOIS

CITY           SKY/WX    TMP DP  RH WIND       PRES   REMARKS
CHICAGO-OHARE  LGT RAIN  37  18  46 S20G35    29.97F WCI  27
CHICAGO-MIDWAY CLOUDY    40  17  39 S22G32    30.00F
AURORA         FRZ RAIN  34  25  69 S24G32    29.97F WCI  21
LANSING*       CLOUDY    38  16  40 S26G32    30.04F WCI  27
JOLIET*        LGT RAIN  37  26  62 S15G28    30.03F WCI  28
WAUKEGAN       LGT RAIN  37  21  52 S23G36    29.93F WCI  26
DUPAGE AIRPORT RAIN      34  25  69 S21G31    29.96F WCI  22
KANKAKEE*      CLOUDY    39  23  52 S18G28    30.08F WCI  29
WHEELING       CLOUDY    38  17  42 S21G32    29.97F WCI  28
MORRIS*        LGT RAIN  36  26  67 S23G30    30.02F WCI  24
ROMEOVILLE*    LGT RAIN  35  24  64 S17G26    30.02F WCI  25
NORTHERLY ISL    N/A     39  17  41 S16         N/A  WCI  30
$$

LMZ740>746-291700-
SOUTHERN LAKE MICHIGAN

STATION/POSITION SKY/WX   TEMP    WIND        PRES    VSBY  WAVE
                          AIR SEA DIR/SP/G                  HT/PER
                          (F)     (DEG/KT/KT) (MB)    (MI)  (FT/S)
HARRISON CRIB              36     190/ 29/ 34   N/A
BURNHAM HARBOR             39     180/ 21/ 27   N/A
CALUMET HARBOR             37     190/ 18/ 28 1017.4F
BURNS HARBOR               36     190/ 23     1019.6F
MICHIGAN CITY              35     160/ 19/ 22   N/A
$$

ILZ025>027-034>036-040-047-049-050-058-095>099-291700-
WEST-CENTRAL ILLINOIS

CITY           SKY/WX    TMP DP  RH WIND       PRES   REMARKS
QUINCY         CLOUDY    43  29  57 S22G31    29.96F
GALESBURG*     CLOUDY    33  29  85 S10G17    29.97R WCI  25
MACOMB*        CLOUDY    36  32  85 S17G28    29.97F WCI  25
JACKSONVILLE*  LGT RAIN  41  25  53 S20G25    30.02F
PITTSFIELD*    CLOUDY    42  28  58 S17G24    30.00F
$$

ILZ028>032-037-038-041>044-048-051>054-059>061-291700-
CENTRAL ILLINOIS

CITY           SKY/WX    TMP DP  RH WIND       PRES   REMARKS
PONTIAC        LGT RAIN  37  27  68 S23G30    30.03F WCI  26
BLOOMINGTON    RAIN      36  26  67 S29G36    30.03F WCI  23
DECATUR        CLOUDY    41  20  43 S22G35    30.11F
PEORIA         LGT RAIN  36  28  73 S24G31    29.97F WCI  24
LACON*         CLOUDY    34  26  74 S16G28    29.95F WCI  23
LINCOLN*       RAIN      37  28  71 S16G23    30.07F WCI  27
SPRINGFIELD    LGT RAIN  38  26  62 S20       30.07F WCI  28
TAYLORVILLE    DRIZZLE   37  27  65 S17G23    30.10F WCI  28
$$

ILZ033-039-045-046-055>057-062-063-291700-
EAST-CENTRAL ILLINOIS

CITY           SKY/WX    TMP DP  RH WIND       PRES   REMARKS
CHAMPAIGN      PTSUNNY   40  22  48 S21       30.12F
DANVILLE*      MOSUNNY   39  22  50 S25       30.10F WCI  28
RANTOUL*       PTSUNNY   40  24  53 S22G30    30.10F
MATTOON        MOSUNNY   43  21  41 S22G32    30.13F
PARIS*         MOSUNNY   41  26  55 S21G29    30.17F
$$

ILZ079-100>102-291700-
SOUTHWEST ILLINOIS

CITY           SKY/WX    TMP DP  RH WIND       PRES   REMARKS
BELLEVILLE     PTSUNNY   47  23  39 S13G18    30.11F
CAHOKIA*       SUNNY     50  24  36 S17G26    30.10F
SPARTA*        SUNNY     46  23  40 S18G28    30.16F
$$

ILZ064>066-069>071-074>076-080>082-084>086-088>090-092>094-291700-
SOUTH-CENTRAL ILLINOIS

CITY           SKY/WX    TMP DP  RH WIND       PRES   REMARKS
CARBONDALE     SUNNY     49  23  36 S16G29    30.20F
CAIRO*         SUNNY     47  26  43 S13G21    30.24F
EFFINGHAM*     MOSUNNY   46  15  29 S17G23    30.19F
MARION         SUNNY     50  25  37 S17       30.20F
MT. VERNON     SUNNY     48  25  40 S22G28    30.20F
CENTRALIA*     SUNNY     46  22  39 S22G30    30.16F
SALEM*         SUNNY     48  23  37 S17G25    30.17F
METROPOLIS*    SUNNY     49  23  36 SE10G16   30.22F
$$

ILZ067-068-072-073-078-083-087-091-291700-
SOUTHEAST ILLINOIS

CITY           SKY/WX    TMP DP  RH WIND       PRES   REMARKS
LAWRENCEVILLE  SUNNY     45  22  40 S20       30.23F
FLORA*         SUNNY     46  25  44 S23       30.21F
FAIRFIELD*     SUNNY     46  25  44 S21G26    30.21F
HARRISBURG*    SUNNY     48  22  34 S17       30.23F
ROBINSON*      SUNNY     44  23  43 S22       30.23F
CARMI*         SUNNY     46  21  37 S20G25    30.23F
$$

ABBREVIATIONS USED IN REMARKS
   TC - TEMPERATURE IN CELSIUS
  WCI - WIND CHILL INDEX
   HX - HEAT INDEX
  VSB - VISIBILITY
$$




USA.gov is the U.S. government's official web portal to all federal, state and local government web resources and services.